Weather History for Dunkirk, NY

Change the Weather History Date:

Sunday, February 3, 2013

  Actual Average Record
Temperature  
Mean Temperature 30 °F -  
Max Temperature 44 °F 32 °F 56 °F (1991)
Min Temperature 15 °F 19 °F -5 °F (1936)
Degree Days  
Heating Degree Days 36    
Moisture  
Dew Point 15 °F    
Average Humidity 54    
Maximum Humidity 88    
Minimum Humidity 26    
Precipitation  
Precipitation 0.02 in - - ()
Sea Level Pressure  
Sea Level Pressure 29.86 in    
Wind  
Wind Speed 5 mph (West)    
Max Wind Speed 17 mph    
Max Gust Speed 30 mph    
Visibility 4 miles    
Events Snow    
Averages and records for this station are not official NWS values.
T = Trace of Precipitation, MM = Missing Value Source: NWS Daily Summary

Daily Weather History Graph

Daily Weather History Graph

Search for Another Location

Airport:

Trip Planner

Search our weather history database for the weather conditions in past years. The results will help you decide how hot, cold, wet, or windy it might be!

Date:

Astronomy

Feb. 03, 2013 Rise Set
Actual Time 7:28 AM EST 5:33 PM EST
Civil Twilight 6:58 AM EST 6:03 PM EST
Nautical Twilight 6:25 AM EST 6:37 PM EST
Astronomical Twilight 5:52 AM EST 7:10 PM EST
Moon 12:54 AM EST (2/3) 11:09 AM EST (2/3)
Length of Visible Light 11h 04m
Length of Day
10h 05m
Waning Gibbous, 49% of the Moon is Illuminated
Feb 3
Waning Gibbous
Feb 10
New
Feb 17
First Quarter
Feb 25
Full
Mar 4
Last Quarter

Hourly Weather History & Observations

Time (EST) Temp. Windchill Dew Point Humidity Pressure Visibility Wind Dir Wind Speed Gust Speed Precip Events Conditions
12:03 AM 28.4 °F 24.6 °F 17.6 °F 64% 29.95 in 1.5 mi SW 3.5 mph - 0.00 in Snow Light Snow
12:08 AM 33.8 °F - 17.6 °F 52% 29.95 in 2.0 mi Calm Calm - 0.00 in Snow Light Snow
12:50 AM 37.4 °F - 17.6 °F 45% 29.94 in 1.5 mi Calm Calm - 0.00 in Snow Light Snow
12:53 AM 36.0 °F - 17.1 °F 46% 29.97 in 1.8 mi Calm Calm - 0.00 in Snow Light Snow
1:40 AM 35.6 °F - 15.8 °F 44% 29.94 in 2.0 mi Calm Calm - 0.00 in Snow Light Snow
1:53 AM 34.0 °F - 16.0 °F 48% 29.96 in 4.0 mi Calm Calm - 0.00 in Snow Light Snow
2:27 AM 33.8 °F - 15.8 °F 48% 29.94 in 7.0 mi Calm Calm - 0.00 in Snow Light Snow
2:43 AM 24.8 °F - 14.0 °F 64% 29.93 in 8.0 mi Calm Calm - 0.00 in   Overcast
2:53 AM 25.0 °F - 14.0 °F 63% 29.96 in 9.0 mi Calm Calm - 0.00 in   Overcast
3:53 AM 18.0 °F - 10.9 °F 74% 29.94 in 10.0 mi Calm Calm - N/A   Overcast
4:53 AM 27.0 °F - 9.0 °F 47% 29.92 in 10.0 mi Calm Calm - N/A   Overcast
5:20 AM 19.4 °F - 8.6 °F 63% 29.89 in 10.0 mi Calm Calm - N/A   Overcast
5:30 AM 26.6 °F - 8.6 °F 47% 29.89 in 10.0 mi Calm Calm - N/A   Overcast
5:53 AM 26.1 °F 21.9 °F 9.0 °F 49% 29.90 in 10.0 mi SE 3.5 mph - N/A   Overcast
6:53 AM 28.0 °F - 8.1 °F 43% 29.90 in 10.0 mi Calm Calm - N/A   Overcast
7:53 AM 18.0 °F - 9.0 °F 68% 29.91 in 10.0 mi Calm Calm - N/A   Overcast
8:53 AM 15.1 °F - 12.0 °F 88% 29.90 in 9.0 mi Calm Calm - N/A   Overcast
9:53 AM 19.0 °F - 15.1 °F 85% 29.86 in 9.0 mi Calm Calm - N/A   Overcast
10:53 AM 43.0 °F 40.3 °F 10.0 °F 26% 29.87 in 10.0 mi ESE 4.6 mph - N/A   Overcast
11:53 AM 39.0 °F 36.8 °F 12.0 °F 33% 29.84 in 8.0 mi East 3.5 mph - N/A   Overcast
12:29 PM 30.2 °F 25.4 °F 12.2 °F 47% 29.80 in 3.0 mi NNE 4.6 mph - 0.00 in Snow Light Snow
12:35 PM 35.6 °F 31.7 °F 15.8 °F 44% 29.80 in 1.8 mi East 4.6 mph - 0.00 in Snow Light Snow
12:53 PM 36.0 °F - 17.1 °F 46% 29.82 in 0.8 mi Calm Calm - 0.00 in Snow Light Snow
1:10 PM 35.6 °F - 17.6 °F 48% 29.79 in 1.2 mi Calm Calm - 0.00 in Snow Light Snow
1:46 PM 26.6 °F 19.1 °F 17.6 °F 69% 29.79 in 0.8 mi North 6.9 mph - 0.00 in Snow Light Snow
1:53 PM 28.0 °F 21.7 °F 17.1 °F 63% 29.81 in 1.0 mi NNW 5.8 mph - 0.00 in Snow Light Snow
2:04 PM 26.6 °F 21.2 °F 17.6 °F 69% 29.78 in 1.5 mi North 4.6 mph - 0.00 in Snow Light Snow
2:29 PM 26.6 °F 22.6 °F 17.6 °F 69% 29.78 in 0.8 mi NNE 3.5 mph - 0.00 in Snow Light Snow
2:36 PM 28.4 °F - 17.6 °F 64% 29.78 in 0.5 mi Calm Calm - 0.00 in Snow Snow
2:53 PM 28.9 °F - 18.0 °F 64% 29.81 in 1.0 mi Calm Calm - 0.00 in Snow Light Snow
3:00 PM 28.4 °F - 17.6 °F 64% 29.78 in 0.8 mi Calm Calm - 0.00 in Snow Light Snow
3:28 PM 44.6 °F 40.7 °F 17.6 °F 34% 29.79 in 1.0 mi WSW 6.9 mph - 0.01 in   Haze
3:40 PM 39.2 °F 32.0 °F 17.6 °F 42% 29.79 in 1.2 mi West 11.5 mph - 0.01 in   Haze
3:50 PM 37.4 °F 30.3 °F 15.8 °F 41% 29.79 in 3.0 mi WSW 10.4 mph - 0.01 in Snow Light Snow
3:51 PM 37.0 °F 29.8 °F 16.0 °F 42% 29.82 in 3.0 mi WSW 10.4 mph - 0.01 in Snow Light Snow
4:06 PM 35.6 °F 28.0 °F 15.8 °F 44% 29.79 in 9.0 mi WSW 10.4 mph - 0.00 in   Overcast
4:23 PM 35.6 °F 29.9 °F 17.6 °F 48% 29.80 in 2.5 mi NW 6.9 mph - 0.00 in Snow Light Snow
4:26 PM 35.6 °F 29.2 °F 17.6 °F 48% 29.80 in 1.2 mi NW 8.1 mph - 0.00 in Snow Light Snow
4:29 PM 32.0 °F 22.5 °F 17.6 °F 55% 29.80 in 0.8 mi NNW 12.7 mph - 0.00 in Snow Light Snow
4:38 PM 24.8 °F 14.6 °F 17.6 °F 74% 29.80 in 0.2 mi NNW 10.4 mph - 0.00 in Snow Heavy Snow
4:53 PM - - - N/A% 29.82 in 0.2 mi WNW 10.4 mph - 0.00 in   Unknown
5:16 PM - - - N/A% 29.82 in 0.8 mi WNW 6.9 mph - 0.00 in   Unknown
5:27 PM - - - N/A% 29.82 in 1.2 mi WNW 9.2 mph - 0.00 in   Unknown
5:46 PM - - - N/A% 29.83 in 3.0 mi West 8.1 mph - 0.00 in   Unknown
5:53 PM - - - N/A% 29.83 in 6.0 mi West 10.4 mph - 0.00 in   Unknown
6:25 PM - - - N/A% 29.84 in 1.8 mi West 8.1 mph - 0.00 in   Unknown
6:30 PM - - - N/A% 29.84 in 0.8 mi West 8.1 mph - 0.00 in   Unknown
6:45 PM - - - N/A% 29.85 in 1.2 mi SW 13.8 mph 19.6 mph 0.00 in   Unknown
6:49 PM - - - N/A% 29.85 in 2.5 mi SW 15.0 mph 25.3 mph 0.00 in   Unknown
6:53 PM - - - N/A% 29.85 in 3.0 mi SW 16.1 mph 25.3 mph 0.00 in   Unknown
7:01 PM - - - N/A% 29.85 in 4.0 mi SW 15.0 mph 24.2 mph 0.00 in   Unknown
7:31 PM - - - N/A% 29.86 in 2.5 mi WSW 16.1 mph 23.0 mph 0.00 in   Unknown
7:37 PM - - - N/A% 29.86 in 3.0 mi WSW 15.0 mph 23.0 mph 0.00 in   Unknown
7:53 PM - - - N/A% 29.86 in 4.0 mi West 17.3 mph 29.9 mph 0.00 in   Unknown
8:30 PM - - - N/A% 29.87 in 2.5 mi West 13.8 mph 23.0 mph 0.00 in   Unknown
8:44 PM - - - N/A% 29.87 in 2.5 mi West 12.7 mph 27.6 mph 0.00 in   Unknown
8:51 PM - - - N/A% 29.87 in 5.0 mi West 13.8 mph 26.5 mph 0.00 in   Unknown
8:53 PM - - - N/A% 29.87 in 5.0 mi West 13.8 mph 26.5 mph 0.00 in   Unknown
9:26 PM - - - N/A% 29.87 in 10.0 mi WNW 11.5 mph 24.2 mph 0.00 in   Overcast
9:53 PM - - - N/A% 29.86 in 10.0 mi WNW 8.1 mph 20.7 mph 0.00 in   Overcast
10:04 PM - - - N/A% 29.87 in 2.0 mi West 12.7 mph 25.3 mph 0.00 in   Unknown
10:07 PM - - - N/A% 29.87 in 1.0 mi West 11.5 mph 21.9 mph 0.00 in   Unknown
10:10 PM - - - N/A% 29.87 in 0.5 mi West 9.2 mph 25.3 mph 0.00 in   Unknown
10:18 PM - - - N/A% 29.87 in 0.5 mi West 11.5 mph 19.6 mph 0.00 in   Unknown
10:25 PM - - - N/A% 29.87 in 1.2 mi WSW 12.7 mph - 0.00 in   Unknown
10:32 PM - - - N/A% 29.87 in 1.2 mi WSW 10.4 mph 17.3 mph 0.00 in   Unknown
10:41 PM - - - N/A% 29.87 in 2.0 mi WSW 9.2 mph - 0.00 in   Unknown
10:49 PM - - - N/A% 29.87 in 7.0 mi West 12.7 mph 21.9 mph 0.00 in   Overcast
10:53 PM - - - N/A% 29.87 in 6.0 mi West 15.0 mph 24.2 mph 0.01 in   Unknown
11:40 PM - - - N/A% 29.89 in 9.0 mi West 15.0 mph 25.3 mph 0.00 in   Overcast
11:53 PM - - - N/A% 29.89 in 9.0 mi West 12.7 mph 20.7 mph 0.00 in   Overcast